Retour au catalogue

COSMOS 2334

ActifMilitairePO
NORAD 24304·PAYLOAD·🇷🇺 Russia

Lancé Sep 5, 1996 depuis Plesetsk Cosmodrome

Loading…

Prochains Passages (prochaines 24 heures)

TLE

FraisSource: Space-Track

Époque: Sep 14, 2026, 14:53 UTC

1 24304U 96052A   26257.62023380  .00000053  00000-0  39960-4 0  9990
2 24304  82.9381  14.5458 0030047  15.7868 355.3765 13.73817760504918

Suivez COSMOS 2334 en temps réel avec AllMySat

Download on the App Store